Lapse_Rate
6.6 6.5 6.3 6.2 6.0 5.9 5.8 5.7 5.5 5.4 5.3 5.2 5.2 5.4 5.4 5.3 5.3 5.3 5.4 5.3 5.2 5.2 5.3 5.4 5.4 5.3 5.3 5.4 5.4 5.3 5.2 5.3 5.4 5.5 5.6 5.8 5.8 6.0 6.1 6.2 6.3 6.5 6.6
6.5 6.4 6.3 6.2 6.0 6.0 5.8 5.7 5.6 5.5 5.3 5.3 5.4 5.4 5.5 5.3 5.3 5.3 5.4 5.3 5.4 5.3 5.4 5.5 5.6 5.6 5.6 5.7 5.6 5.5 5.6 5.6 5.8 6.0 6.0 6.0 6.0 6.1 6.2 6.3 6.4 6.5 6.7
6.7 6.5 6.2 6.2 6.1 6.0 5.9 5.8 5.7 5.6 5.6 5.5 5.4 5.5 5.4 5.4 5.5 5.4 5.3 5.4 5.3 5.3 5.4 5.4 5.4 5.5 5.5 5.6 5.6 5.6 5.6 5.7 5.9 6.1 6.1 6.1 6.1 6.2 6.2 6.3 6.4 6.5 6.7
6.9 6.6 6.4 6.3 6.1 6.0 5.9 5.9 5.9 5.8 5.6 5.6 5.5 5.5 5.5 5.5 5.5 5.5 5.4 5.3 5.3 5.3 5.4 5.4 5.4 5.4 5.5 5.6 5.7 5.6 5.6 5.8 6.0 6.1 6.1 6.2 6.3 6.3 6.4 6.4 6.5 6.6 6.6
7.0 6.7 6.5 6.3 6.1 6.0 6.0 5.9 5.7 5.7 5.7 5.5 5.6 5.4 5.3 5.4 5.4 5.5 5.5 5.4 5.4 5.3 5.3 5.4 5.4 5.5 5.5 5.6 5.5 5.5 5.6 5.5 5.8 5.9 6.0 6.2 6.4 6.5 6.6 6.7 6.7 6.7 6.8
6.9 6.8 6.6 6.3 6.1 6.0 6.0 6.0 5.8 5.7 5.7 5.8 5.6 5.5 5.4 5.3 5.3 5.3 5.3 5.3 5.3 5.2 5.3 5.3 5.4 5.5 5.5 5.6 5.5 5.5 5.6 5.5 5.4 5.5 5.7 6.0 6.2 6.4 6.5 6.7 6.8 6.7 6.6
6.8 6.8 6.6 6.4 6.2 6.1 6.0 6.0 6.0 5.9 5.8 5.7 5.6 5.6 5.5 5.4 5.3 5.2 5.2 5.1 5.1 5.1 5.1 5.2 5.3 5.3 5.3 5.5 5.4 5.6 5.7 5.6 5.7 5.8 5.8 5.9 6.0 6.2 6.2 6.4 6.7 6.8 6.7
6.8 6.8 6.7 6.4 6.3 6.1 6.0 6.0 6.0 5.9 5.9 5.9 5.9 5.7 5.6 5.4 5.3 5.3 5.2 5.1 5.0 5.0 5.1 5.1 5.1 5.0 5.1 5.3 5.3 5.2 5.4 5.6 5.7 5.8 5.8 5.9 5.9 6.1 6.1 6.2 6.3 6.5 6.6
6.8 6.7 6.6 6.5 6.3 6.1 6.1 6.1 6.0 6.0 5.9 5.8 5.8 5.7 5.7 5.5 5.4 5.3 5.3 5.2 5.2 5.1 5.1 5.1 5.1 5.1 5.1 5.2 5.3 5.3 5.2 5.3 5.5 5.6 5.6 5.7 5.8 6.0 6.1 6.1 6.2 6.4 6.6
6.8 6.8 6.6 6.5 6.4 6.2 6.2 6.2 6.0 6.0 5.9 5.8 5.7 5.6 5.5 5.5 5.5 5.3 5.3 5.3 5.3 5.3 5.3 5.2 5.1 5.1 5.2 5.2 5.3 5.4 5.3 5.4 5.6 5.6 5.6 5.6 5.6 5.7 5.9 6.1 6.1 6.4 6.6
6.9 6.8 6.7 6.5 6.3 6.3 6.3 6.2 6.1 6.1 6.0 5.8 5.7 5.6 5.6 5.5 5.5 5.5 5.5 5.5 5.5 5.4 5.4 5.4 5.4 5.3 5.3 5.4 5.4 5.5 5.6 5.6 5.7 5.7 5.8 5.8 5.8 5.8 5.8 5.9 6.1 6.1 6.3
6.7 6.6 6.6 6.5 6.5 6.4 6.3 6.3 6.2 6.2 6.1 5.9 5.8 5.8 5.7 5.6 5.6 5.5 5.6 5.6 5.5 5.4 5.4 5.4 5.4 5.4 5.5 5.6 5.6 5.7 5.8 5.8 5.7 5.8 5.9 5.9 5.9 6.0 5.9 6.0 6.1 6.2 6.3
6.6 6.6 6.5 6.5 6.5 6.4 6.4 6.3 6.2 6.2 6.1 6.1 5.9 5.8 5.9 5.8 5.7 5.7 5.7 5.6 5.5 5.6 5.6 5.5 5.5 5.5 5.5 5.6 5.6 5.6 5.8 5.9 5.8 5.8 5.9 6.0 6.2 6.2 6.2 6.2 6.1 6.3 6.5
6.7 6.7 6.6 6.6 6.5 6.4 6.3 6.2 6.1 6.1 6.1 6.1 6.0 6.0 5.9 5.9 5.8 5.8 5.7 5.7 5.6 5.5 5.6 5.6 5.6 5.6 5.7 5.7 5.8 5.8 5.9 6.0 6.0 6.0 6.1 6.1 6.0 6.1 6.2 6.3 6.4 6.2 6.3
6.6 6.5 6.4 6.4 6.4 6.3 6.2 6.1 6.1 6.1 5.9 5.9 5.9 5.9 5.8 5.9 5.9 5.8 5.7 5.7 5.6 5.6 5.6 5.7 5.7 5.8 5.7 5.8 5.8 5.8 5.8 5.9 6.0 6.2 6.3 6.3 6.2 6.2 6.3 6.4 6.4 6.4 6.4
6.6 6.5 6.4 6.3 6.2 6.1 6.0 6.0 6.0 5.9 5.9 5.9 5.8 5.7 5.8 5.8 5.7 5.7 5.7 5.7 5.7 5.6 5.5 5.5 5.6 5.7 5.8 5.9 5.9 5.9 5.8 6.0 6.0 6.2 6.4 6.5 6.5 6.4 6.3 6.3 6.3 6.4 6.3
6.5 6.3 6.4 6.3 6.2 6.2 6.0 5.9 5.9 5.8 5.8 5.9 5.7 5.6 5.5 5.6 5.7 5.7 5.7 5.7 5.5 5.6 5.6 5.6 5.7 5.8 5.9 5.8 5.8 5.8 5.8 5.9 6.1 6.2 6.4 6.5 6.6 6.6 6.4 6.4 6.5 6.5 6.5
6.2 6.3 6.3 6.3 6.3 6.3 6.2 6.2 6.1 6.0 6.0 5.9 5.7 5.6 5.5 5.4 5.5 5.7 5.8 5.8 5.6 5.7 5.7 5.8 5.8 5.8 5.9 5.8 5.8 5.7 5.7 5.8 6.0 6.2 6.5 6.5 6.6 6.6 6.7 6.6 6.6 6.7 6.6
6.6 6.5 6.5 6.4 6.3 6.2 6.1 6.2 6.1 6.1 6.0 5.9 5.8 5.7 5.6 5.6 5.5 5.6 5.8 5.8 5.7 5.8 5.8 5.9 5.9 5.9 6.0 6.1 6.0 6.1 6.1 6.1 6.1 6.2 6.4 6.4 6.6 6.7 6.7 6.6 6.6 6.6 6.6
6.7 6.7 6.5 6.3 6.3 6.2 6.2 6.3 6.2 6.1 6.1 6.1 6.1 6.0 5.7 5.6 5.5 5.6 5.7 5.8 5.8 5.7 5.9 5.8 5.7 5.8 6.0 6.1 6.0 6.1 6.1 6.1 5.9 6.1 6.2 6.1 6.2 6.4 6.5 6.6 6.5 6.5 6.5
6.6 6.7 6.7 6.4 6.3 6.1 6.1 6.1 6.1 6.2 6.1 6.1 6.0 5.9 5.9 5.8 5.8 5.9 5.8 5.8 5.8 5.6 5.7 5.8 5.8 5.8 5.8 5.8 5.8 6.0 5.8 5.8 6.1 6.1 6.0 6.0 6.1 6.3 6.4 6.5 6.5 6.4 6.5
6.5 6.8 6.7 6.6 6.5 6.3 6.2 6.3 6.2 6.1 6.2 6.2 6.0 5.9 5.8 5.8 5.8 5.8 5.7 5.7 5.6 5.6 5.6 5.9 5.8 5.7 5.6 5.6 5.6 5.4 5.3 5.6 6.1 6.1 6.1 6.1 6.2 6.3 6.4 6.4 6.4 6.5 6.4
6.5 6.7 6.6 6.5 6.5 6.5 6.5 6.4 6.4 6.5 6.4 6.4 6.2 5.9 5.8 5.7 5.8 5.7 5.5 5.5 5.4 5.4 5.6 5.8 6.0 5.9 5.7 5.5 5.6 5.6 5.3 5.4 5.6 5.9 6.2 6.2 6.3 6.4 6.4 6.5 6.5 6.5 6.4
6.2 6.2 6.3 6.4 6.3 6.3 6.2 6.1 6.2 6.3 6.5 6.5 6.5 6.4 6.4 6.2 6.0 5.7 5.5 5.4 5.2 5.2 5.4 5.7 5.8 5.8 5.8 5.9 5.8 6.0 5.9 5.8 5.7 5.8 6.0 6.0 6.3 6.4 6.4 6.6 6.5 6.6 6.6
6.4 6.2 6.2 6.2 6.2 6.2 6.1 6.1 6.1 6.2 6.1 6.1 6.1 6.1 6.1 6.1 6.0 5.9 5.8 5.8 5.9 5.7 5.5 5.4 5.4 5.5 5.7 5.9 5.9 5.9 6.1 6.1 6.0 6.0 6.0 6.0 5.9 6.0 6.1 6.1 6.3 6.4 6.5
6.8 6.6 6.3 6.3 6.3 6.3 6.3 6.2 6.2 6.1 6.0 5.9 5.8 5.7 5.7 5.8 5.8 5.7 5.9 5.9 5.9 5.8 5.7 5.5 5.4 5.3 5.3 5.5 5.5 5.8 5.9 5.9 5.9 5.7 5.8 5.7 5.7 5.8 5.9 6.0 6.0 6.2 6.1
Wind_Speed
7 13 20 19 17 16 16 16 16 16 16 15 14 13 12 11 11 10 12 16 15 14 12 11 11 11 13 14 15 15 14 15 14 14 13 13 12 12 11 10 7 6 7
13 16 20 19 18 17 17 16 15 16 17 15 14 11 11 10 10 10 11 15 15 13 12 11 10 10 12 13 14 14 14 14 14 13 12 11 9 9 9 8 6 7 11
13 16 19 20 18 16 16 16 16 16 15 16 13 11 10 9 10 10 12 15 13 12 11 10 10 10 11 12 13 12 12 13 11 10 9 6 5 7 7 7 7 7 6
15 15 17 19 17 18 17 16 15 17 17 15 13 12 9 9 9 12 13 15 12 12 12 11 10 10 11 12 11 10 8 5 3 4 7 7 5 6 3 5 6 8 4
12 15 17 19 18 18 17 16 16 19 15 13 13 11 9 6 16 14 16 15 12 12 12 11 10 10 10 10 9 8 6 4 5 4 5 6 9 9 13 12 8 10 17
10 15 18 19 18 17 16 17 18 18 15 14 12 10 10 13 16 16 16 14 11 11 11 9 8 8 8 8 7 7 5 10 12 8 6 6 9 10 14 11 12 14 13
8 15 17 18 18 16 15 17 19 18 16 16 12 10 10 12 13 13 14 11 10 10 10 9 7 6 6 6 6 6 6 11 9 6 7 6 6 8 10 9 9 10 9
11 12 16 18 17 16 15 17 18 18 17 16 14 11 9 8 11 10 10 10 9 8 8 7 5 4 3 3 4 6 7 11 7 5 5 5 5 6 6 6 7 8 7
10 10 13 16 18 18 17 19 19 19 18 18 16 14 10 9 6 8 8 8 7 7 7 5 4 2 1 1 2 5 7 7 6 4 4 3 4 4 6 5 6 6 6
5 6 9 12 12 14 16 20 20 19 18 17 17 15 13 12 9 8 7 7 7 7 6 4 3 2 1 0 0 3 3 3 4 4 3 4 4 8 8 6 3 4 5
4 5 7 8 11 13 13 15 16 18 17 16 15 16 14 11 11 12 11 8 8 9 6 4 3 2 2 1 2 1 1 1 4 4 4 6 7 10 9 6 3 4 4
6 5 5 7 8 10 9 10 12 14 14 14 14 14 14 13 10 9 9 9 10 10 10 7 5 4 2 2 3 2 1 2 4 6 7 8 9 9 8 6 5 5 4
6 4 6 5 10 10 7 10 9 10 12 13 15 15 12 11 10 9 9 9 9 8 7 7 6 5 5 4 4 5 4 4 6 7 8 10 11 7 7 7 6 6 5
6 7 6 6 5 7 8 9 10 8 10 10 15 16 13 9 9 9 10 11 10 13 10 10 8 7 7 8 8 8 5 5 6 8 9 11 11 10 8 8 8 8 7
7 7 7 6 6 7 6 7 8 8 10 11 14 16 15 9 7 10 10 10 11 11 10 9 9 8 8 10 10 9 8 8 9 10 11 13 12 10 10 10 9 10 9
7 7 7 8 8 10 6 7 7 10 13 12 12 14 17 14 10 9 7 9 11 13 13 12 10 8 8 8 8 11 12 9 10 11 15 15 15 14 14 13 11 11 10
6 9 9 9 11 8 9 9 9 11 11 10 12 15 16 16 14 11 8 6 11 14 12 10 9 8 5 6 6 8 11 11 10 11 15 16 17 17 16 15 13 13 13
6 9 10 8 8 8 9 9 9 11 11 11 13 15 17 14 17 13 7 7 13 13 11 6 4 4 4 4 4 5 6 9 12 12 14 16 17 18 19 17 16 15 15
8 7 7 7 8 9 6 7 9 11 10 12 13 13 16 17 16 13 10 11 14 10 7 6 5 4 4 4 5 5 4 5 7 10 11 16 19 19 20 22 20 18 18
4 5 6 4 5 6 4 3 2 3 5 10 9 11 15 15 17 14 10 8 10 5 5 4 7 4 4 5 5 5 5 5 7 5 8 12 17 20 21 22 22 19 21
5 6 3 5 2 2 2 2 2 5 3 3 8 13 12 12 12 13 10 8 9 7 8 8 5 7 5 2 1 3 4 5 6 6 8 8 11 16 19 19 19 19 20
5 5 5 5 4 2 2 1 1 1 2 2 2 7 11 11 11 9 6 5 6 6 6 6 7 3 3 5 3 1 3 3 4 7 5 7 9 10 12 16 18 19 20
5 4 5 5 4 3 2 1 1 2 2 2 1 2 3 8 11 11 10 5 5 5 5 6 5 8 9 3 5 3 1 4 2 1 4 4 6 4 6 10 14 17 20
5 5 5 5 5 4 4 3 2 0 1 2 2 3 4 6 7 8 9 9 6 4 6 7 6 8 4 7 2 5 3 3 4 3 2 2 4 6 6 6 11 16 19
5 5 5 7 6 5 6 5 3 2 1 2 3 5 5 5 6 7 8 7 6 4 6 7 5 6 5 7 4 2 5 2 1 3 9 3 2 4 5 6 11 13 16
5 5 5 7 6 6 6 6 5 4 1 2 2 2 3 3 3 6 8 6 5 5 6 6 6 6 7 7 4 4 4 3 3 5 7 8 6 2 3 4 4 9 12
Wind_Direction
178 157 155 153 148 145 143 140 138 131 126 123 115 109 107 102 97 98 100 104 97 94 95 93 87 82 80 85 89 88 87 88 85 81 78 70 86 78 82 82 62 42 7
146 152 153 153 152 150 147 144 137 135 137 134 124 119 110 109 108 113 117 106 103 101 99 98 95 94 92 94 98 99 94 90 86 80 77 77 80 83 82 84 71 58 52
147 152 154 153 151 150 140 141 145 144 138 124 124 122 118 118 117 124 123 114 110 104 101 101 100 100 102 103 103 101 92 83 82 77 59 53 93 90 90 92 68 57 60
145 150 150 150 151 140 141 146 150 143 132 131 127 120 122 127 137 141 134 118 114 108 108 107 104 103 106 109 106 96 88 80 97 78 42 39 90 97 106 115 81 43 59
141 146 150 147 143 146 149 151 151 135 137 133 116 121 128 131 142 138 133 121 118 117 118 117 113 108 111 112 106 96 82 86 129 129 82 65 66 92 72 129 97 68 53
129 139 148 150 149 152 155 159 146 141 140 122 117 129 137 120 122 129 127 121 128 127 130 128 121 116 116 116 110 97 81 120 123 120 108 97 90 87 87 86 83 69 51
132 139 146 145 153 156 158 149 147 144 137 120 126 136 141 127 127 124 120 140 141 142 144 140 135 128 123 118 108 96 111 137 130 127 114 107 106 99 83 69 59 67 61
142 145 146 154 160 160 161 156 153 146 138 133 138 141 150 140 145 144 142 150 153 153 151 148 148 143 127 101 86 63 121 141 137 130 125 121 115 103 96 75 72 73 82
139 141 151 161 170 171 169 169 161 149 145 146 149 150 151 157 166 162 160 163 162 159 157 161 168 173 158 104 87 70 131 151 143 147 144 151 161 132 118 96 81 78 77
124 136 147 165 179 169 169 176 164 154 154 155 155 157 158 158 174 181 174 179 174 167 162 170 187 220 249 294 127 85 92 136 166 178 194 203 220 149 123 105 71 88 83
130 151 154 159 165 163 167 182 167 159 161 163 163 164 164 173 177 172 179 180 180 175 172 185 208 245 277 310 310 357 42 126 196 220 226 224 229 159 142 121 117 107 104
169 181 175 163 162 154 138 153 155 158 165 168 170 173 173 178 182 183 186 191 194 195 182 191 203 207 225 295 307 303 324 294 223 240 248 234 215 168 144 145 156 152 142
181 175 182 177 170 162 149 164 166 167 173 176 179 185 185 183 186 189 198 206 210 212 201 209 208 214 223 232 243 246 233 257 233 235 240 220 206 173 165 167 177 171 164
170 194 183 180 180 185 173 180 184 175 179 179 191 192 186 187 195 198 203 214 216 212 208 210 217 230 242 247 254 267 253 248 245 231 224 203 196 196 205 196 189 184 180
184 196 201 179 189 189 189 193 193 193 188 194 196 201 196 190 198 201 212 216 222 219 219 219 225 230 242 249 254 261 253 238 242 229 224 214 213 207 204 204 202 198 197
183 193 197 198 198 183 190 191 203 195 202 197 203 207 204 202 204 201 211 216 223 222 225 220 216 221 236 244 255 252 253 243 237 233 227 225 225 215 208 211 211 211 208
195 184 192 196 197 189 196 198 200 205 197 197 208 214 209 207 208 205 212 212 223 223 228 228 231 231 237 237 247 254 254 245 234 231 226 227 229 224 215 220 223 221 217
186 194 195 191 179 183 199 201 201 206 203 207 208 212 219 216 210 208 211 219 218 214 211 215 222 229 230 227 234 241 241 248 238 235 229 227 228 228 225 223 226 226 222
214 208 191 186 182 190 189 192 198 207 208 215 214 214 220 219 217 211 217 221 207 209 209 213 224 209 222 231 231 236 229 241 241 237 225 223 225 225 226 226 227 225 222
241 235 247 193 189 183 176 181 186 203 225 231 227 219 217 218 218 210 224 223 200 210 220 200 221 203 213 225 232 240 231 229 238 229 229 228 224 223 224 226 229 227 223
76 90 95 126 60 145 151 175 200 222 200 206 220 233 233 222 220 207 219 214 195 207 220 216 214 225 244 182 99 277 259 225 237 238 224 225 228 222 220 223 225 228 226
120 116 97 89 71 78 118 185 227 217 227 248 224 224 233 233 232 230 232 234 208 216 218 211 201 219 232 173 198 336 303 304 260 238 216 226 233 215 221 221 218 222 224
121 111 93 76 62 51 54 76 37 10 358 324 298 286 258 242 238 229 235 229 232 211 225 221 206 209 243 183 198 207 249 229 315 298 253 247 236 209 219 214 216 218 221
138 117 103 91 79 46 44 63 61 102 262 303 322 315 312 312 286 262 238 228 224 212 218 226 220 223 201 232 177 234 220 170 219 285 277 277 227 226 208 209 214 217 217
135 123 111 102 83 77 72 80 81 64 343 322 323 315 318 318 314 316 289 252 233 213 228 224 211 207 203 235 202 160 221 168 78 250 281 281 338 254 240 217 221 223 224
113 101 95 91 70 64 73 72 85 87 353 345 326 328 329 332 356 9 345 317 268 244 224 229 222 214 215 223 210 197 195 193 200 216 253 267 263 279 261 239 222 226 219